Regional Weather Roundup
Issued by NWS

Home | Current Version | Previous Version | Text Only | Print | Product List | Glossary On
Versions: 1 2 3 4 5 6 7 8 9 10 11 12 13 14 15 16 17 18 19 20 21 22 23 24 25 26 27 28 29 30 31 32 33 34 35 36 37 38 39 40 41 42 43 44 45 46 47 48 49 50
000
ASUS45 KBOI 060710
RWRID
WEATHER ROUNDUP FOR IDAHO
NATIONAL WEATHER SERVICE BOISE ID
100 AM MDT WED MAY 06 2015

NOTE: "FAIR" INDICATES FEW OR NO CLOUDS BELOW 12000 FEET
WITH NO SIGNIFICANT WEATHER AND/OR OBSTRUCTIONS TO VISIBILITY

IDZ012-014-060800-
SOUTHWEST IDAHO


CITY           SKY/WX    TMP DP  RH WIND       PRES   REMARKS
BOISE          CLEAR     52  27  38 W9        29.86R
CALDWELL       CLEAR     48  21  34 W9        29.90R
MOUNTAIN HOME  PTCLDY    49  24  37 NW16      29.84R
$$

IDZ016-017-060800-
SOUTHCENTRAL IDAHO


CITY           SKY/WX    TMP DP  RH WIND       PRES   REMARKS
BURLEY         LGT RAIN  52  23  32 W14G22    29.81S
JEROME         MOCLDY    49  23  36 SW9       29.84R
TWIN FALLS     MOCLDY    51  20  29 SW17      29.84S
$$

IDZ019>023-060800-
SOUTHEAST IDAHO


CITY           SKY/WX    TMP DP  RH WIND       PRES   REMARKS
IDAHO FALLS    MOCLDY    47  43  86 SW3       29.80S
POCATELLO      CLEAR     55  22  27 SW21      29.81S
REXBURG        PTCLDY    48  43  82 NE6       29.81S
$$

IDZ006-010-011-018-031-032-060800-
CENTRAL IDAHO MOUNTAINS


CITY           SKY/WX    TMP DP  RH WIND       PRES   REMARKS
MCCALL         CLEAR     41  29  62 N6        29.91S
HAILEY         PTCLDY    46  30  53 N7        29.84S
STANLEY          N/A     37  22  54 SW7       29.92R WCI  32
SALMON         CLOUDY    50  28  43 N13       29.86R
CHALLIS        PTCLDY    46  32  58 N7        29.85R
$$

IDZ002-004-006-007-026-060800-
NORTHERN IDAHO


CITY           SKY/WX    TMP DP  RH WIND       PRES   REMARKS
LEWISTON       CLEAR     50  25  37 SW8       29.96S
LOWELL           N/A     43  37  79 CALM      29.99R
COEUR D`ALENE  PTCLDY    41  30  65 CALM      29.96R
MULLAN PASS    CLEAR     33  21  61 VRB6      29.93F WCI  28
$$



USA.gov is the U.S. government's official web portal to all federal, state and local government web resources and services.